Time,TemperatureF,DewpointF,PressureIn,WindDirection,WindDirectionDegrees,WindSpeedMPH,WindSpeedGustMPH,Humidity,HourlyPrecipIn,Conditions,Clouds,dailyrainin,SolarRadiationWatts/m^2,SoftwareType,DateUTC
2013-03-08 00:00:00,33.5,30.9,30.07,NW,309,0.0,0.0,90,0.01,,---,0.00,0.00,VWS V14.01,2013-03-08 05:00:00,
2013-03-08 00:02:00,33.4,30.8,30.07,NNW,327,0.0,0.0,90,0.01,,---,0.00,0.00,VWS V14.01,2013-03-08 05:02:00,
2013-03-08 00:07:00,33.2,30.6,30.07,North,355,0.0,0.0,90,0.01,,---,0.00,0.00,VWS V14.01,2013-03-08 05:07:00,
2013-03-08 00:12:00,33.2,30.6,30.07,NW,316,0.0,0.0,90,0.01,,---,0.00,0.00,VWS V14.01,2013-03-08 05:12:00,
2013-03-08 00:17:00,33.5,30.9,30.06,NNW,342,0.0,0.0,90,0.01,,---,0.00,0.00,VWS V14.01,2013-03-08 05:17:00,
2013-03-08 00:22:00,33.2,30.6,30.06,North,360,0.0,0.0,90,0.01,,---,0.00,0.00,VWS V14.01,2013-03-08 05:22:00,
2013-03-08 00:27:00,33.1,30.5,30.07,North,355,0.0,0.0,90,0.01,,---,0.00,0.00,VWS V14.01,2013-03-08 05:27:00,
2013-03-08 00:32:00,32.9,30.0,30.06,WNW,302,0.0,0.0,89,0.01,,---,0.00,0.00,VWS V14.01,2013-03-08 05:32:00,
2013-03-08 00:37:00,32.8,30.2,30.07,NNW,329,0.0,0.0,90,0.01,,---,0.00,0.00,VWS V14.01,2013-03-08 05:37:00,
2013-03-08 00:42:00,32.7,30.1,30.07,North,9,0.0,0.0,90,0.01,,---,0.00,0.00,VWS V14.01,2013-03-08 05:42:00,
2013-03-08 00:47:00,32.6,30.0,30.07,NW,309,0.0,0.0,90,0.01,,---,0.00,0.00,VWS V14.01,2013-03-08 05:47:00,
2013-03-08 00:52:00,32.5,29.9,30.07,North,9,0.0,0.0,90,0.00,,---,0.00,0.00,VWS V14.01,2013-03-08 05:52:00,
2013-03-08 00:57:00,32.4,29.8,30.07,NNW,348,0.0,0.0,90,0.00,,---,0.00,0.00,VWS V14.01,2013-03-08 05:57:00,
2013-03-08 01:02:00,32.3,29.7,30.06,NNW,342,0.0,0.0,90,0.00,,---,0.00,0.00,VWS V14.01,2013-03-08 06:02:00,
2013-03-08 01:07:00,32.2,29.6,30.07,NNW,339,0.0,0.0,90,0.00,,---,0.00,0.00,VWS V14.01,2013-03-08 06:07:00,
2013-03-08 01:12:00,32.2,29.6,30.07,NNW,346,0.0,0.0,90,0.00,,---,0.00,0.00,VWS V14.01,2013-03-08 06:12:00,
2013-03-08 01:17:00,32.2,29.6,30.07,NNW,345,0.0,0.0,90,0.00,,---,0.00,0.00,VWS V14.01,2013-03-08 06:17:00,
2013-03-08 01:22:00,32.3,29.7,30.07,NNE,24,0.0,0.0,90,0.00,,---,0.00,0.00,VWS V14.01,2013-03-08 06:22:00,
2013-03-08 01:27:00,32.3,29.7,30.07,NNE,24,0.0,0.0,90,0.00,,---,0.00,0.00,VWS V14.01,2013-03-08 06:27:00,
2013-03-08 01:32:00,32.2,29.6,30.07,NNW,340,0.0,0.0,90,0.00,,---,0.00,0.00,VWS V14.01,2013-03-08 06:32:00,
2013-03-08 01:37:00,32.3,30.0,30.06,WNW,284,0.0,0.0,91,0.00,,---,0.00,0.00,VWS V14.01,2013-03-08 06:37:00,
2013-03-08 01:42:00,32.3,29.7,30.06,North,11,0.0,0.0,90,0.00,,---,0.00,0.00,VWS V14.01,2013-03-08 06:42:00,
2013-03-08 01:47:00,32.2,29.6,30.06,NNE,13,0.0,0.0,90,0.00,,---,0.00,0.00,VWS V14.01,2013-03-08 06:47:00,
2013-03-08 01:52:00,32.1,29.8,30.06,North,5,0.0,0.0,91,0.00,,---,0.00,0.00,VWS V14.01,2013-03-08 06:52:00,
2013-03-08 01:57:00,32.3,30.0,30.05,NNE,15,0.0,0.0,91,0.00,,---,0.00,0.00,VWS V14.01,2013-03-08 06:57:00,
2013-03-08 02:02:00,32.4,29.8,30.05,North,355,0.0,0.0,90,0.00,,---,0.00,0.00,VWS V14.01,2013-03-08 07:02:00,
2013-03-08 02:07:00,32.2,29.6,30.05,North,360,0.0,0.0,90,0.00,,---,0.00,0.00,VWS V14.01,2013-03-08 07:07:00,
2013-03-08 02:12:00,32.1,29.8,30.05,NNW,345,0.0,0.0,91,0.00,,---,0.00,0.00,VWS V14.01,2013-03-08 07:12:00,
2013-03-08 02:17:00,32.2,29.9,30.05,NNW,336,0.0,0.0,91,0.00,,---,0.00,0.00,VWS V14.01,2013-03-08 07:17:00,
2013-03-08 02:22:00,32.5,30.2,30.05,NW,321,0.0,0.0,91,0.00,,---,0.00,0.00,VWS V14.01,2013-03-08 07:22:00,
2013-03-08 02:27:00,32.5,30.2,30.05,NNW,342,0.0,0.0,91,0.00,,---,0.00,0.00,VWS V14.01,2013-03-08 07:27:00,
2013-03-08 02:32:00,32.4,29.8,30.04,WNW,300,0.0,0.0,90,0.00,,---,0.00,0.00,VWS V14.01,2013-03-08 07:32:00,
2013-03-08 02:37:00,32.3,29.7,30.04,NNW,343,0.0,0.0,90,0.00,,---,0.00,0.00,VWS V14.01,2013-03-08 07:37:00,
2013-03-08 02:42:00,32.3,29.7,30.04,North,5,0.0,0.0,90,0.00,,---,0.00,0.00,VWS V14.01,2013-03-08 07:42:00,
2013-03-08 02:47:00,32.1,29.5,30.04,North,350,0.0,0.0,90,0.00,,---,0.00,0.00,VWS V14.01,2013-03-08 07:47:00,
2013-03-08 02:52:00,32.1,29.5,30.03,NNW,333,0.0,0.0,90,0.00,,---,0.00,0.00,VWS V14.01,2013-03-08 07:52:00,
2013-03-08 02:57:00,32.0,29.7,30.03,ENE,76,0.0,0.0,91,0.00,,---,0.00,0.00,VWS V14.01,2013-03-08 07:57:00,
2013-03-08 03:02:00,31.9,29.3,30.03,North,11,0.0,0.0,90,0.00,,---,0.00,0.00,VWS V14.01,2013-03-08 08:02:00,
2013-03-08 03:07:00,31.9,29.3,30.03,NW,309,0.0,0.0,90,0.00,,---,0.00,0.00,VWS V14.01,2013-03-08 08:07:00,
2013-03-08 03:12:00,31.9,29.3,30.02,NNW,346,0.0,0.0,90,0.00,,---,0.00,0.00,VWS V14.01,2013-03-08 08:12:00,
2013-03-08 03:17:00,31.9,29.3,30.02,NE,47,0.0,0.0,90,0.00,,---,0.00,0.00,VWS V14.01,2013-03-08 08:17:00,
2013-03-08 03:22:00,31.9,29.3,30.02,NNW,334,0.0,0.0,90,0.00,,---,0.00,0.00,VWS V14.01,2013-03-08 08:22:00,
2013-03-08 03:27:00,31.8,29.2,30.02,NW,321,0.0,0.0,90,0.00,,---,0.00,0.00,VWS V14.01,2013-03-08 08:27:00,
2013-03-08 03:32:00,31.9,29.3,30.02,NNW,329,0.0,0.0,90,0.00,,---,0.00,0.00,VWS V14.01,2013-03-08 08:32:00,
2013-03-08 03:37:00,32.0,29.4,30.02,North,355,0.0,0.0,90,0.00,,---,0.00,0.00,VWS V14.01,2013-03-08 08:37:00,
2013-03-08 03:42:00,31.9,29.3,30.02,NW,305,0.0,0.0,90,0.00,,---,0.00,0.00,VWS V14.01,2013-03-08 08:42:00,
2013-03-08 03:47:00,31.9,29.3,30.02,North,360,0.0,0.0,90,0.00,,---,0.00,0.00,VWS V14.01,2013-03-08 08:47:00,
2013-03-08 03:52:00,31.7,29.1,30.02,NNW,338,0.0,0.0,90,0.00,,---,0.00,0.00,VWS V14.01,2013-03-08 08:52:00,
2013-03-08 03:57:00,31.8,29.2,30.02,NE,38,0.0,0.0,90,0.00,,---,0.00,0.00,VWS V14.01,2013-03-08 08:57:00,
2013-03-08 04:02:00,31.7,29.1,30.02,NNW,329,0.0,0.0,90,0.00,,---,0.00,0.00,VWS V14.01,2013-03-08 09:02:00,
2013-03-08 04:07:00,31.7,29.1,30.02,NNW,338,0.0,0.0,90,0.00,,---,0.00,0.00,VWS V14.01,2013-03-08 09:07:00,
2013-03-08 04:12:00,31.5,28.9,30.02,NNE,14,0.0,0.0,90,0.00,,---,0.00,0.00,VWS V14.01,2013-03-08 09:12:00,
2013-03-08 04:17:00,31.4,28.8,30.02,NNW,344,0.0,0.0,90,0.00,,---,0.00,0.00,VWS V14.01,2013-03-08 09:17:00,
2013-03-08 04:22:00,31.5,29.2,30.02,NNE,24,0.0,0.0,91,0.00,,---,0.00,0.00,VWS V14.01,2013-03-08 09:22:00,
2013-03-08 04:27:00,31.5,28.9,30.02,NNW,330,0.0,0.0,90,0.00,,---,0.00,0.00,VWS V14.01,2013-03-08 09:27:00,
2013-03-08 04:32:00,31.5,28.9,30.02,NNE,22,0.0,0.0,90,0.00,,---,0.00,0.00,VWS V14.01,2013-03-08 09:32:00,
2013-03-08 04:37:00,31.3,29.0,30.02,NW,320,0.0,0.0,91,0.00,,---,0.00,0.00,VWS V14.01,2013-03-08 09:37:00,
2013-03-08 04:42:00,31.2,28.9,30.02,North,355,0.0,0.0,91,0.00,,---,0.00,0.00,VWS V14.01,2013-03-08 09:42:00,
2013-03-08 04:47:00,31.2,28.9,30.02,NNW,343,0.0,0.0,91,0.00,,---,0.00,0.00,VWS V14.01,2013-03-08 09:47:00,
2013-03-08 04:52:00,31.3,29.0,30.02,North,5,0.0,0.0,91,0.00,,---,0.00,0.00,VWS V14.01,2013-03-08 09:52:00,
2013-03-08 04:57:00,31.2,28.9,30.02,North,5,0.0,0.0,91,0.00,,---,0.00,0.00,VWS V14.01,2013-03-08 09:57:00,
2013-03-08 05:02:00,31.2,28.9,30.02,NE,55,0.0,0.0,91,0.00,,---,0.00,0.00,VWS V14.01,2013-03-08 10:02:00,
2013-03-08 05:07:00,31.1,28.8,30.02,WNW,290,0.0,0.0,91,0.00,,---,0.00,0.00,VWS V14.01,2013-03-08 10:07:00,
2013-03-08 05:12:00,31.2,28.6,30.02,North,9,0.0,0.0,90,0.00,,---,0.00,0.00,VWS V14.01,2013-03-08 10:12:00,
2013-03-08 05:17:00,31.4,29.1,30.02,NNE,22,0.0,0.0,91,0.00,,---,0.00,0.00,VWS V14.01,2013-03-08 10:17:00,
2013-03-08 05:22:00,31.4,29.1,30.03,North,10,0.0,0.0,91,0.00,,---,0.00,0.00,VWS V14.01,2013-03-08 10:22:00,
2013-03-08 05:27:00,31.2,28.6,30.02,WNW,294,0.0,0.0,90,0.00,,---,0.00,0.00,VWS V14.01,2013-03-08 10:27:00,
2013-03-08 05:32:00,31.2,28.6,30.02,NNW,338,0.0,0.0,90,0.00,,---,0.00,0.00,VWS V14.01,2013-03-08 10:32:00,
2013-03-08 05:37:00,31.2,28.6,30.02,NNE,29,0.0,0.0,90,0.00,,---,0.00,0.00,VWS V14.01,2013-03-08 10:37:00,
2013-03-08 05:42:00,31.1,28.8,30.02,ENE,60,0.0,0.0,91,0.00,,---,0.00,0.00,VWS V14.01,2013-03-08 10:42:00,
2013-03-08 05:47:00,31.3,29.0,30.03,NW,323,0.0,0.0,91,0.00,,---,0.00,0.00,VWS V14.01,2013-03-08 10:47:00,
2013-03-08 05:52:00,31.3,29.0,30.02,WNW,299,0.0,0.0,91,0.00,,---,0.00,0.00,VWS V14.01,2013-03-08 10:52:00,
2013-03-08 05:57:00,31.3,29.0,30.02,North,5,0.0,0.0,91,0.00,,---,0.00,0.00,VWS V14.01,2013-03-08 10:57:00,
2013-03-08 06:02:00,31.5,28.9,30.02,North,9,0.0,0.0,90,0.00,,---,0.00,0.00,VWS V14.01,2013-03-08 11:02:00,
2013-03-08 06:07:00,31.3,28.7,30.02,NW,306,0.0,0.0,90,0.00,,---,0.00,0.00,VWS V14.01,2013-03-08 11:07:00,
2013-03-08 06:12:00,31.1,28.8,30.02,NW,311,0.0,0.0,91,0.00,,---,0.00,0.00,VWS V14.01,2013-03-08 11:12:00,
2013-03-08 06:17:00,31.2,28.9,30.02,NW,305,0.0,0.0,91,0.00,,---,0.00,0.00,VWS V14.01,2013-03-08 11:17:00,
2013-03-08 06:22:00,31.1,28.8,30.02,North,9,0.0,0.0,91,0.00,,---,0.00,0.00,VWS V14.01,2013-03-08 11:22:00,
2013-03-08 06:27:00,30.9,28.6,30.02,North,355,0.0,0.0,91,0.00,,---,0.00,0.00,VWS V14.01,2013-03-08 11:27:00,
2013-03-08 06:32:00,30.8,28.5,30.02,NNW,336,0.0,0.0,91,0.00,,---,0.00,0.00,VWS V14.01,2013-03-08 11:32:00,
2013-03-08 06:37:00,31.1,28.8,30.02,WNW,300,0.0,0.0,91,0.00,,---,0.00,0.00,VWS V14.01,2013-03-08 11:37:00,
2013-03-08 06:42:00,31.1,28.8,30.02,North,360,0.0,0.0,91,0.00,,---,0.00,0.00,VWS V14.01,2013-03-08 11:42:00,
2013-03-08 06:47:00,30.9,28.3,30.02,NNW,338,0.0,0.0,90,0.00,,---,0.00,0.00,VWS V14.01,2013-03-08 11:47:00,
2013-03-08 06:52:00,30.8,28.5,30.02,NW,304,0.0,0.0,91,0.00,,---,0.00,0.00,VWS V14.01,2013-03-08 11:52:00,
2013-03-08 06:57:00,31.0,28.7,30.02,NNW,346,0.0,0.0,91,0.00,,---,0.00,0.00,VWS V14.01,2013-03-08 11:57:00,
2013-03-08 07:02:00,31.0,28.4,30.02,WNW,299,0.0,0.0,90,0.00,,---,0.00,5.00,VWS V14.01,2013-03-08 12:02:00,
2013-03-08 07:07:00,31.0,28.4,30.02,NNW,338,0.0,0.0,90,0.00,,---,0.00,5.00,VWS V14.01,2013-03-08 12:07:00,
2013-03-08 07:12:00,31.0,28.4,30.03,WNW,283,0.0,0.0,90,0.00,,---,0.00,5.00,VWS V14.01,2013-03-08 12:12:00,
2013-03-08 07:17:00,31.1,28.5,30.03,NNE,22,0.0,0.0,90,0.00,,---,0.00,5.00,VWS V14.01,2013-03-08 12:17:00,
2013-03-08 07:22:00,31.1,28.5,30.03,NNE,20,0.0,0.0,90,0.00,,---,0.00,5.00,VWS V14.01,2013-03-08 12:22:00,
2013-03-08 07:27:00,31.1,28.2,30.03,North,5,0.0,0.0,89,0.00,,---,0.00,7.00,VWS V14.01,2013-03-08 12:27:00,
2013-03-08 07:32:00,31.1,28.2,30.03,NNW,337,0.0,0.0,89,0.00,,---,0.00,11.00,VWS V14.01,2013-03-08 12:32:00,
2013-03-08 07:37:00,31.1,28.5,30.03,NNW,327,0.0,0.0,90,0.00,,---,0.00,14.00,VWS V14.01,2013-03-08 12:37:00,
2013-03-08 07:42:00,31.2,28.6,30.03,North,350,0.0,0.0,90,0.00,,---,0.00,12.00,VWS V14.01,2013-03-08 12:42:00,
2013-03-08 07:47:00,31.2,28.6,30.03,NNE,28,0.0,0.0,90,0.00,,---,0.00,11.00,VWS V14.01,2013-03-08 12:47:00,
2013-03-08 07:52:00,31.3,28.7,30.03,NE,47,0.0,0.0,90,0.00,,---,0.00,14.00,VWS V14.01,2013-03-08 12:52:00,
2013-03-08 07:57:00,31.3,28.4,30.03,NNW,333,0.0,0.0,89,0.00,,---,0.00,19.00,VWS V14.01,2013-03-08 12:57:00,
2013-03-08 08:02:00,31.5,28.6,30.03,WNW,291,0.0,0.0,89,0.00,,---,0.00,19.00,VWS V14.01,2013-03-08 13:02:00,
2013-03-08 08:07:00,31.8,28.7,30.03,North,355,0.0,0.0,88,0.00,,---,0.00,19.00,VWS V14.01,2013-03-08 13:07:00,
2013-03-08 08:12:00,31.7,28.8,30.03,NNW,332,0.0,0.0,89,0.00,,---,0.00,19.00,VWS V14.01,2013-03-08 13:12:00,
2013-03-08 08:17:00,31.7,28.8,30.03,NE,46,0.0,0.0,89,0.00,,---,0.00,19.00,VWS V14.01,2013-03-08 13:17:00,
2013-03-08 08:22:00,31.7,28.8,30.03,NW,325,0.0,0.0,89,0.00,,---,0.00,19.00,VWS V14.01,2013-03-08 13:22:00,
2013-03-08 08:27:00,31.7,28.8,30.03,NNE,30,0.0,0.0,89,0.00,,---,0.00,19.00,VWS V14.01,2013-03-08 13:27:00,
2013-03-08 08:32:00,31.7,28.8,30.03,North,351,0.0,0.0,89,0.00,,---,0.00,19.00,VWS V14.01,2013-03-08 13:32:00,
2013-03-08 08:37:00,31.8,28.9,30.03,NNW,332,0.0,0.0,89,0.00,,---,0.00,19.00,VWS V14.01,2013-03-08 13:37:00,
2013-03-08 08:42:00,31.6,28.7,30.03,NNW,334,0.0,0.0,89,0.00,,---,0.00,18.00,VWS V14.01,2013-03-08 13:42:00,
2013-03-08 08:47:00,31.5,28.6,30.04,North,355,0.0,0.0,89,0.00,,---,0.00,18.00,VWS V14.01,2013-03-08 13:47:00,
2013-03-08 08:52:00,31.5,28.6,30.04,NNW,333,0.0,0.0,89,0.00,,---,0.00,23.00,VWS V14.01,2013-03-08 13:52:00,
2013-03-08 08:57:00,31.6,28.7,30.04,North,9,0.0,0.0,89,0.00,,---,0.00,25.00,VWS V14.01,2013-03-08 13:57:00,
2013-03-08 09:02:00,31.8,28.9,30.04,North,5,0.0,0.0,89,0.00,,---,0.00,25.00,VWS V14.01,2013-03-08 14:02:00,
2013-03-08 09:07:00,31.6,28.7,30.04,NNE,13,0.0,0.0,89,0.00,,---,0.00,25.00,VWS V14.01,2013-03-08 14:07:00,
2013-03-08 09:12:00,31.5,28.6,30.04,North,9,0.0,0.0,89,0.00,,---,0.00,32.00,VWS V14.01,2013-03-08 14:12:00,
2013-03-08 09:17:00,31.7,28.8,30.04,NW,313,0.0,0.0,89,0.00,,---,0.00,33.00,VWS V14.01,2013-03-08 14:17:00,
2013-03-08 09:22:00,31.8,28.9,30.05,North,351,0.0,0.0,89,0.00,,---,0.00,32.00,VWS V14.01,2013-03-08 14:22:00,
2013-03-08 09:27:00,32.0,29.1,30.04,NNW,327,0.0,0.0,89,0.00,,---,0.00,33.00,VWS V14.01,2013-03-08 14:27:00,
2013-03-08 09:32:00,31.9,29.0,30.04,NNW,330,0.0,0.0,89,0.00,,---,0.00,33.00,VWS V14.01,2013-03-08 14:32:00,
2013-03-08 09:37:00,31.9,29.0,30.05,North,5,0.0,0.0,89,0.00,,---,0.00,39.00,VWS V14.01,2013-03-08 14:37:00,
2013-03-08 09:42:00,32.0,29.1,30.04,NNW,348,0.0,0.0,89,0.01,,---,0.01,39.00,VWS V14.01,2013-03-08 14:42:00,
2013-03-08 09:47:00,32.0,29.1,30.05,NW,319,0.0,0.0,89,0.01,,---,0.01,37.00,VWS V14.01,2013-03-08 14:47:00,
2013-03-08 09:52:00,32.0,29.1,30.04,NNW,341,0.0,0.0,89,0.01,,---,0.01,39.00,VWS V14.01,2013-03-08 14:52:00,
2013-03-08 09:57:00,32.1,29.2,30.04,NW,325,0.0,0.0,89,0.01,,---,0.01,39.00,VWS V14.01,2013-03-08 14:57:00,
2013-03-08 10:02:00,32.2,29.3,30.05,North,355,0.0,0.0,89,0.01,,---,0.01,39.00,VWS V14.01,2013-03-08 15:02:00,
2013-03-08 10:07:00,32.3,29.4,30.05,NNW,329,0.0,0.0,89,0.01,,---,0.01,37.00,VWS V14.01,2013-03-08 15:07:00,
2013-03-08 10:12:00,32.2,29.3,30.05,North,11,0.0,0.0,89,0.01,,---,0.01,35.00,VWS V14.01,2013-03-08 15:12:00,
2013-03-08 10:17:00,32.2,29.3,30.05,NE,48,0.0,0.0,89,0.01,,---,0.01,33.00,VWS V14.01,2013-03-08 15:17:00,
2013-03-08 10:22:00,32.1,29.5,30.05,NE,49,0.0,0.0,90,0.01,,---,0.01,35.00,VWS V14.01,2013-03-08 15:22:00,
2013-03-08 10:27:00,32.1,29.5,30.05,North,360,0.0,0.0,90,0.02,,---,0.02,30.00,VWS V14.01,2013-03-08 15:27:00,
2013-03-08 10:32:00,32.0,29.4,30.05,North,11,0.0,0.0,90,0.02,,---,0.02,26.00,VWS V14.01,2013-03-08 15:32:00,
2013-03-08 10:37:00,32.2,29.6,30.05,NNE,28,0.0,0.0,90,0.02,,---,0.02,28.00,VWS V14.01,2013-03-08 15:37:00,
2013-03-08 10:42:00,32.0,29.7,30.05,NW,325,0.0,0.0,91,0.02,,---,0.02,32.00,VWS V14.01,2013-03-08 15:42:00,
2013-03-08 10:47:00,32.0,29.7,30.05,NNW,336,0.0,0.0,91,0.02,,---,0.02,35.00,VWS V14.01,2013-03-08 15:47:00,
2013-03-08 10:52:00,32.2,29.9,30.05,NNE,17,0.0,0.0,91,0.01,,---,0.02,30.00,VWS V14.01,2013-03-08 15:52:00,
2013-03-08 10:57:00,32.1,29.8,30.05,NNW,340,0.0,0.0,91,0.01,,---,0.02,33.00,VWS V14.01,2013-03-08 15:57:00,
2013-03-08 11:02:00,32.0,29.7,30.05,NNE,16,0.0,0.0,91,0.01,,---,0.02,39.00,VWS V14.01,2013-03-08 16:02:00,
2013-03-08 11:07:00,32.0,29.7,30.05,NNW,327,0.0,0.0,91,0.01,,---,0.02,33.00,VWS V14.01,2013-03-08 16:07:00,
2013-03-08 11:12:00,31.8,29.5,30.05,NNE,25,0.0,0.0,91,0.01,,---,0.02,28.00,VWS V14.01,2013-03-08 16:12:00,
2013-03-08 11:17:00,31.8,29.8,30.05,North,355,0.0,0.0,92,0.01,,---,0.02,28.00,VWS V14.01,2013-03-08 16:17:00,
2013-03-08 11:22:00,32.1,30.0,30.05,NW,304,0.0,0.0,92,0.02,,---,0.03,28.00,VWS V14.01,2013-03-08 16:22:00,
2013-03-08 11:27:00,32.1,30.0,30.06,NNW,332,0.0,0.0,92,0.02,,---,0.03,32.00,VWS V14.01,2013-03-08 16:27:00,
2013-03-08 11:32:00,32.2,29.9,30.06,NNE,26,0.0,0.0,91,0.01,,---,0.03,32.00,VWS V14.01,2013-03-08 16:32:00,
2013-03-08 11:37:00,32.1,29.8,30.06,West,277,0.0,0.0,91,0.01,,---,0.03,30.00,VWS V14.01,2013-03-08 16:37:00,
2013-03-08 11:42:00,32.1,29.8,30.06,NNW,340,0.0,0.0,91,0.01,,---,0.03,30.00,VWS V14.01,2013-03-08 16:42:00,
2013-03-08 11:47:00,32.1,29.8,30.06,NNW,333,0.0,0.0,91,0.01,,---,0.03,30.00,VWS V14.01,2013-03-08 16:47:00,
2013-03-08 11:52:00,32.1,29.8,30.06,NW,323,0.0,0.0,91,0.01,,---,0.03,30.00,VWS V14.01,2013-03-08 16:52:00,
2013-03-08 11:57:00,32.2,29.9,30.06,WNW,302,0.0,0.0,91,0.01,,---,0.03,28.00,VWS V14.01,2013-03-08 16:57:00,
2013-03-08 12:02:00,32.2,29.9,30.06,NE,38,0.0,0.0,91,0.01,,---,0.03,25.00,VWS V14.01,2013-03-08 17:02:00,
2013-03-08 12:07:00,32.3,30.0,30.06,NNE,24,0.0,0.0,91,0.01,,---,0.03,26.00,VWS V14.01,2013-03-08 17:07:00,
2013-03-08 12:12:00,32.4,30.1,30.06,North,5,0.0,0.0,91,0.01,,---,0.03,32.00,VWS V14.01,2013-03-08 17:12:00,
2013-03-08 12:17:00,32.5,30.2,30.06,NW,316,0.0,0.0,91,0.02,,---,0.04,32.00,VWS V14.01,2013-03-08 17:17:00,
2013-03-08 12:22:00,32.5,30.2,30.06,North,355,0.0,0.0,91,0.01,,---,0.04,32.00,VWS V14.01,2013-03-08 17:22:00,
2013-03-08 12:27:00,32.7,30.4,30.05,WNW,291,0.0,0.0,91,0.01,,---,0.04,32.00,VWS V14.01,2013-03-08 17:27:00,
2013-03-08 12:32:00,32.8,30.5,30.05,NW,318,0.0,0.0,91,0.01,,---,0.04,30.00,VWS V14.01,2013-03-08 17:32:00,
2013-03-08 12:37:00,32.7,30.4,30.05,WNW,293,0.0,0.0,91,0.01,,---,0.04,30.00,VWS V14.01,2013-03-08 17:37:00,
2013-03-08 12:42:00,33.0,30.4,30.05,North,355,0.0,0.0,90,0.02,,---,0.05,30.00,VWS V14.01,2013-03-08 17:42:00,
2013-03-08 12:47:00,33.0,30.7,30.05,North,360,0.0,0.0,91,0.02,,---,0.05,28.00,VWS V14.01,2013-03-08 17:47:00,
2013-03-08 12:52:00,33.2,30.6,30.05,North,9,0.0,0.0,90,0.02,,---,0.05,33.00,VWS V14.01,2013-03-08 17:52:00,
2013-03-08 12:57:00,33.2,30.9,30.05,NNW,342,0.0,0.0,91,0.02,,---,0.05,42.00,VWS V14.01,2013-03-08 17:57:00,
2013-03-08 13:02:00,33.4,31.1,30.05,North,355,0.0,0.0,91,0.03,,---,0.06,84.00,VWS V14.01,2013-03-08 18:02:00,
2013-03-08 13:07:00,33.3,31.0,30.05,NNE,26,0.0,0.0,91,0.03,,---,0.06,141.00,VWS V14.01,2013-03-08 18:07:00,
2013-03-08 13:12:00,33.3,31.0,30.05,NNE,24,0.0,0.0,91,0.03,,---,0.06,165.00,VWS V14.01,2013-03-08 18:12:00,
2013-03-08 13:17:00,34.0,31.4,30.04,NW,304,0.0,0.0,90,0.04,,---,0.07,149.00,VWS V14.01,2013-03-08 18:17:00,
2013-03-08 13:22:00,33.8,31.2,30.04,North,355,0.0,0.0,90,0.03,,---,0.07,165.00,VWS V14.01,2013-03-08 18:22:00,
2013-03-08 13:27:00,34.0,31.4,30.04,NE,35,0.0,0.0,90,0.03,,---,0.07,171.00,VWS V14.01,2013-03-08 18:27:00,
2013-03-08 13:31:00,34.2,31.6,30.04,NNW,336,0.0,0.0,90,0.04,,---,0.08,195.00,VWS V14.01,2013-03-08 18:31:00,
2013-03-08 13:36:00,34.0,31.4,30.04,NNW,342,0.0,0.0,90,0.05,,---,0.09,239.00,VWS V14.01,2013-03-08 18:36:00,
2013-03-08 13:41:00,34.2,31.6,30.04,NW,308,0.0,0.0,90,0.05,,---,0.09,230.00,VWS V14.01,2013-03-08 18:41:00,
2013-03-08 13:46:00,34.6,31.7,30.04,North,355,0.0,0.0,89,0.06,,---,0.10,185.00,VWS V14.01,2013-03-08 18:46:00,
2013-03-08 13:51:00,34.5,31.9,30.05,North,355,0.0,0.0,90,0.05,,---,0.10,163.00,VWS V14.01,2013-03-08 18:51:00,
2013-03-08 13:56:00,34.8,31.9,30.05,North,5,0.0,0.0,89,0.06,,---,0.11,125.00,VWS V14.01,2013-03-08 18:56:00,
2013-03-08 14:02:00,35.0,32.1,30.04,NNW,333,0.0,0.0,89,0.06,,---,0.11,160.00,VWS V14.01,2013-03-08 19:02:00,
2013-03-08 14:07:00,35.1,32.2,30.04,NNW,333,0.0,0.0,89,0.07,,---,0.12,174.00,VWS V14.01,2013-03-08 19:07:00,
2013-03-08 14:12:00,35.3,32.7,30.04,NNW,337,0.0,0.0,90,0.07,,---,0.13,195.00,VWS V14.01,2013-03-08 19:12:00,
2013-03-08 14:17:00,35.3,32.4,30.05,NNE,26,0.0,0.0,89,0.07,,---,0.13,181.00,VWS V14.01,2013-03-08 19:17:00,
2013-03-08 14:22:00,35.6,32.4,30.05,ENE,59,0.0,0.0,88,0.07,,---,0.14,181.00,VWS V14.01,2013-03-08 19:22:00,
2013-03-08 14:27:00,34.9,32.0,30.05,NNE,23,0.0,0.0,89,0.07,,---,0.14,179.00,VWS V14.01,2013-03-08 19:27:00,
2013-03-08 14:32:00,34.8,32.2,30.05,NE,47,0.0,0.0,90,0.07,,---,0.15,163.00,VWS V14.01,2013-03-08 19:32:00,
2013-03-08 14:37:00,35.3,32.9,30.05,NNE,30,0.0,0.0,91,0.08,,---,0.16,158.00,VWS V14.01,2013-03-08 19:37:00,
2013-03-08 14:42:00,35.3,32.7,30.05,NNE,22,0.0,0.0,90,0.08,,---,0.17,158.00,VWS V14.01,2013-03-08 19:42:00,
2013-03-08 14:47:00,35.8,33.2,30.06,NE,52,0.0,0.0,90,0.08,,---,0.17,135.00,VWS V14.01,2013-03-08 19:47:00,
2013-03-08 14:51:00,35.6,33.0,30.06,NE,35,0.0,0.0,90,0.08,,---,0.18,160.00,VWS V14.01,2013-03-08 19:51:00,
2013-03-08 14:56:00,35.3,32.7,30.06,NE,42,0.0,0.0,90,0.08,,---,0.18,172.00,VWS V14.01,2013-03-08 19:56:00,
2013-03-08 15:01:00,34.9,32.5,30.06,East,90,0.0,0.0,91,0.08,,---,0.19,174.00,VWS V14.01,2013-03-08 20:01:00,
2013-03-08 15:06:00,34.5,32.4,30.06,East,97,0.0,0.0,92,0.09,,---,0.20,165.00,VWS V14.01,2013-03-08 20:06:00,
2013-03-08 15:11:00,34.8,32.5,30.06,NNE,24,0.0,0.0,91,0.08,,---,0.20,171.00,VWS V14.01,2013-03-08 20:11:00,
2013-03-08 15:16:00,35.7,33.3,30.06,NNE,30,0.0,0.0,91,0.09,,---,0.21,197.00,VWS V14.01,2013-03-08 20:16:00,
2013-03-08 15:21:00,36.6,34.0,30.06,North,360,0.0,0.0,90,0.07,,---,0.21,209.00,VWS V14.01,2013-03-08 20:21:00,
2013-03-08 15:26:00,36.6,33.7,30.06,North,360,0.0,0.0,89,0.08,,---,0.22,209.00,VWS V14.01,2013-03-08 20:26:00,
2013-03-08 15:31:00,36.6,33.7,30.06,ENE,63,0.0,0.0,89,0.07,,---,0.22,193.00,VWS V14.01,2013-03-08 20:31:00,
2013-03-08 15:36:00,36.9,34.0,30.06,North,355,0.0,0.0,89,0.08,,---,0.23,171.00,VWS V14.01,2013-03-08 20:36:00,
2013-03-08 15:41:00,37.3,34.1,30.06,North,351,0.0,0.0,88,0.07,,---,0.23,167.00,VWS V14.01,2013-03-08 20:41:00,
2013-03-08 15:46:00,37.8,34.3,30.06,East,80,0.0,0.0,87,0.08,,---,0.24,174.00,VWS V14.01,2013-03-08 20:46:00,
2013-03-08 15:51:00,38.2,34.7,30.06,North,11,0.0,0.0,87,0.07,,---,0.24,155.00,VWS V14.01,2013-03-08 20:51:00,
2013-03-08 15:56:00,38.5,34.7,30.06,North,349,0.0,0.0,86,0.08,,---,0.25,120.00,VWS V14.01,2013-03-08 20:56:00,
2013-03-08 16:01:00,38.6,34.8,30.07,North,355,0.0,0.0,86,0.07,,---,0.26,107.00,VWS V14.01,2013-03-08 21:01:00,
2013-03-08 16:06:00,38.8,34.7,30.06,North,355,0.0,0.0,85,0.07,,---,0.26,113.00,VWS V14.01,2013-03-08 21:06:00,
2013-03-08 16:11:00,39.0,34.6,30.07,NNE,23,0.0,0.0,84,0.07,,---,0.27,113.00,VWS V14.01,2013-03-08 21:11:00,
2013-03-08 16:16:00,39.4,34.7,30.07,North,350,0.0,0.0,83,0.08,,---,0.28,113.00,VWS V14.01,2013-03-08 21:16:00,
2013-03-08 16:21:00,39.8,34.8,30.07,North,5,0.0,0.0,82,0.08,,---,0.29,130.00,VWS V14.01,2013-03-08 21:21:00,
2013-03-08 16:26:00,40.0,34.7,30.07,East,82,0.0,0.0,81,0.08,,---,0.29,139.00,VWS V14.01,2013-03-08 21:26:00,
2013-03-08 16:31:00,40.2,34.5,30.07,NE,50,0.0,0.0,80,0.08,,---,0.30,128.00,VWS V14.01,2013-03-08 21:31:00,
2013-03-08 16:36:00,40.5,34.5,30.07,NNW,341,0.0,0.0,79,0.09,,---,0.31,130.00,VWS V14.01,2013-03-08 21:36:00,
2013-03-08 16:41:00,40.7,34.7,30.07,NE,34,0.0,0.0,79,0.08,,---,0.31,116.00,VWS V14.01,2013-03-08 21:41:00,
2013-03-08 16:46:00,40.8,34.5,30.08,North,9,0.0,0.0,78,0.09,,---,0.32,109.00,VWS V14.01,2013-03-08 21:46:00,
2013-03-08 16:51:00,40.8,34.5,30.08,NNE,24,0.0,0.0,78,0.08,,---,0.32,104.00,VWS V14.01,2013-03-08 21:51:00,
2013-03-08 16:56:00,40.8,34.5,30.08,NNE,19,0.0,0.0,78,0.09,,---,0.33,100.00,VWS V14.01,2013-03-08 21:56:00,
2013-03-08 17:01:00,40.8,34.5,30.09,NNE,17,0.0,0.0,78,0.08,,---,0.33,86.00,VWS V14.01,2013-03-08 22:01:00,
2013-03-08 17:06:00,41.0,34.3,30.09,NNE,17,0.0,0.0,77,0.09,,---,0.34,77.00,VWS V14.01,2013-03-08 22:06:00,
2013-03-08 17:11:00,41.2,34.5,30.09,North,10,0.0,0.0,77,0.07,,---,0.34,60.00,VWS V14.01,2013-03-08 22:11:00,
2013-03-08 17:16:00,41.3,34.7,30.10,North,360,0.0,0.0,77,0.08,,---,0.35,53.00,VWS V14.01,2013-03-08 22:16:00,
2013-03-08 17:21:00,41.3,34.7,30.10,North,9,0.0,0.0,77,0.07,,---,0.35,47.00,VWS V14.01,2013-03-08 22:21:00,
2013-03-08 17:26:00,41.4,34.7,30.10,NNE,13,0.0,0.0,77,0.07,,---,0.35,42.00,VWS V14.01,2013-03-08 22:26:00,
2013-03-08 17:31:00,41.4,34.7,30.09,NNE,16,0.0,0.0,77,0.06,,---,0.36,25.00,VWS V14.01,2013-03-08 22:31:00,
2013-03-08 17:36:00,41.5,34.5,30.09,NW,326,0.0,0.0,76,0.06,,---,0.36,16.00,VWS V14.01,2013-03-08 22:36:00,
2013-03-08 17:41:00,41.5,34.8,30.10,NNW,336,0.0,0.0,77,0.05,,---,0.36,11.00,VWS V14.01,2013-03-08 22:41:00,
2013-03-08 17:46:00,41.6,34.6,30.10,NNW,348,0.0,0.0,76,0.06,,---,0.37,7.00,VWS V14.01,2013-03-08 22:46:00,
2013-03-08 17:51:00,41.7,34.7,30.11,North,360,0.0,0.0,76,0.05,,---,0.37,5.00,VWS V14.01,2013-03-08 22:51:00,
2013-03-08 17:56:00,41.7,34.7,30.11,NNE,14,0.0,0.0,76,0.05,,---,0.37,0.00,VWS V14.01,2013-03-08 22:56:00,
2013-03-08 18:01:00,41.7,34.7,30.11,NE,39,0.0,0.0,76,0.04,,---,0.37,0.00,VWS V14.01,2013-03-08 23:01:00,
2013-03-08 18:06:00,41.7,34.7,30.12,North,5,0.0,0.0,76,0.04,,---,0.37,0.00,VWS V14.01,2013-03-08 23:06:00,
2013-03-08 18:11:00,41.6,34.6,30.12,NNW,334,0.0,0.0,76,0.04,,---,0.38,0.00,VWS V14.01,2013-03-08 23:11:00,
2013-03-08 18:16:00,41.6,34.3,30.12,NNW,348,0.0,0.0,75,0.04,,---,0.38,0.00,VWS V14.01,2013-03-08 23:16:00,
2013-03-08 18:21:00,41.7,34.4,30.13,North,355,0.0,0.0,75,0.03,,---,0.38,0.00,VWS V14.01,2013-03-08 23:21:00,
2013-03-08 18:26:00,41.7,34.0,30.14,NNE,24,0.0,0.0,74,0.03,,---,0.38,0.00,VWS V14.01,2013-03-08 23:26:00,
2013-03-08 18:31:00,41.8,34.1,30.15,NE,41,0.0,0.0,74,0.02,,---,0.38,0.00,VWS V14.01,2013-03-08 23:31:00,
2013-03-08 18:36:00,41.8,34.1,30.15,NNE,30,0.0,0.0,74,0.02,,---,0.38,0.00,VWS V14.01,2013-03-08 23:36:00,
2013-03-08 18:41:00,41.8,34.1,30.15,NNE,13,0.0,0.0,74,0.02,,---,0.38,0.00,VWS V14.01,2013-03-08 23:41:00,
2013-03-08 18:46:00,41.7,34.4,30.15,NNE,13,0.0,0.0,75,0.02,,---,0.38,0.00,VWS V14.01,2013-03-08 23:46:00,
2013-03-08 18:51:00,41.3,34.7,30.15,NNE,25,0.0,0.0,77,0.02,,---,0.39,0.00,VWS V14.01,2013-03-08 23:51:00,
2013-03-08 18:56:00,41.0,34.7,30.15,NNE,21,0.0,0.0,78,0.02,,---,0.39,0.00,VWS V14.01,2013-03-08 23:56:00,
2013-03-08 19:01:00,40.8,34.5,30.15,North,5,0.0,0.0,78,0.02,,---,0.39,0.00,VWS V14.01,2013-03-09 00:01:00,
2013-03-08 19:06:00,40.9,34.3,30.16,NNE,24,0.0,0.0,77,0.02,,---,0.39,0.00,VWS V14.01,2013-03-09 00:06:00,
2013-03-08 19:11:00,40.9,34.3,30.16,NE,39,0.0,0.0,77,0.01,,---,0.39,0.00,VWS V14.01,2013-03-09 00:11:00,
2013-03-08 19:16:00,40.7,34.4,30.16,NNE,17,0.0,0.0,78,0.01,,---,0.39,0.00,VWS V14.01,2013-03-09 00:16:00,
2013-03-08 19:21:00,40.5,34.2,30.16,NNE,19,0.0,0.0,78,0.01,,---,0.39,0.00,VWS V14.01,2013-03-09 00:21:00,
2013-03-08 19:26:00,40.4,34.1,30.16,NE,51,0.0,0.0,78,0.01,,---,0.39,0.00,VWS V14.01,2013-03-09 00:26:00,
2013-03-08 19:31:00,40.4,34.1,30.17,NE,47,0.0,0.0,78,0.01,,---,0.39,0.00,VWS V14.01,2013-03-09 00:31:00,
2013-03-08 19:36:00,40.4,34.1,30.17,North,5,0.0,0.0,78,0.01,,---,0.39,0.00,VWS V14.01,2013-03-09 00:36:00,
2013-03-08 19:41:00,40.4,33.8,30.17,North,355,0.0,0.0,77,0.01,,---,0.39,0.00,VWS V14.01,2013-03-09 00:41:00,
2013-03-08 19:46:00,40.4,33.5,30.17,North,5,0.0,0.0,76,0.01,,---,0.39,0.00,VWS V14.01,2013-03-09 00:46:00,
2013-03-08 19:51:00,40.5,32.9,30.17,NNE,21,0.0,0.0,74,0.00,,---,0.39,0.00,VWS V14.01,2013-03-09 00:51:00,
2013-03-08 19:56:00,40.5,32.5,30.17,NW,319,0.0,0.0,73,0.00,,---,0.39,0.00,VWS V14.01,2013-03-09 00:56:00,
2013-03-08 20:01:00,40.4,32.4,30.17,NNW,330,0.0,0.0,73,0.00,,---,0.39,0.00,VWS V14.01,2013-03-09 01:01:00,
2013-03-08 20:06:00,40.2,32.2,30.17,NNE,21,0.0,0.0,73,0.00,,---,0.39,0.00,VWS V14.01,2013-03-09 01:06:00,
2013-03-08 20:11:00,40.2,32.2,30.17,North,11,0.0,0.0,73,0.00,,---,0.39,0.00,VWS V14.01,2013-03-09 01:11:00,
2013-03-08 20:16:00,40.0,31.7,30.17,ENE,67,0.0,0.0,72,0.00,,---,0.39,0.00,VWS V14.01,2013-03-09 01:16:00,
2013-03-08 20:21:00,40.0,31.7,30.18,NNW,348,0.0,0.0,72,0.01,,---,0.40,0.00,VWS V14.01,2013-03-09 01:21:00,
2013-03-08 20:26:00,39.9,31.3,30.18,NNE,22,0.0,0.0,71,0.01,,---,0.40,0.00,VWS V14.01,2013-03-09 01:26:00,
2013-03-08 20:31:00,39.9,30.9,30.18,ESE,103,0.0,0.0,70,0.01,,---,0.40,0.00,VWS V14.01,2013-03-09 01:31:00,
2013-03-08 20:36:00,39.7,30.7,30.18,NNE,28,0.0,0.0,70,0.01,,---,0.40,0.00,VWS V14.01,2013-03-09 01:36:00,
2013-03-08 20:41:00,39.6,30.3,30.19,NNE,27,0.0,0.0,69,0.01,,---,0.40,0.00,VWS V14.01,2013-03-09 01:41:00,
2013-03-08 20:46:00,39.6,30.3,30.19,NNE,26,0.0,0.0,69,0.01,,---,0.40,0.00,VWS V14.01,2013-03-09 01:46:00,
2013-03-08 20:51:00,39.5,30.2,30.19,WNW,290,0.0,0.0,69,0.01,,---,0.40,0.00,VWS V14.01,2013-03-09 01:51:00,
2013-03-08 20:56:00,39.5,29.8,30.19,NNE,15,0.0,0.0,68,0.01,,---,0.40,0.00,VWS V14.01,2013-03-09 01:56:00,
2013-03-08 21:01:00,39.6,29.6,30.19,NNW,330,0.0,0.0,67,0.01,,---,0.40,0.00,VWS V14.01,2013-03-09 02:01:00,
2013-03-08 21:06:00,39.6,29.6,30.19,NNW,346,0.0,0.0,67,0.01,,---,0.40,0.00,VWS V14.01,2013-03-09 02:06:00,
2013-03-08 21:11:00,39.6,29.2,30.19,North,350,0.0,0.0,66,0.01,,---,0.40,0.00,VWS V14.01,2013-03-09 02:11:00,
2013-03-08 21:16:00,39.6,29.2,30.19,North,360,0.0,0.0,66,0.01,,---,0.40,0.00,VWS V14.01,2013-03-09 02:16:00,
2013-03-08 21:21:00,39.5,29.1,30.19,NE,51,0.0,0.0,66,0.01,,---,0.40,0.00,VWS V14.01,2013-03-09 02:21:00,
2013-03-08 21:26:00,39.4,29.0,30.19,North,349,0.0,0.0,66,0.01,,---,0.40,0.00,VWS V14.01,2013-03-09 02:26:00,
2013-03-08 21:31:00,39.3,28.9,30.19,North,11,0.0,0.0,66,0.00,,---,0.40,0.00,VWS V14.01,2013-03-09 02:31:00,
2013-03-08 21:36:00,39.3,28.9,30.19,North,350,0.0,0.0,66,0.00,,---,0.40,0.00,VWS V14.01,2013-03-09 02:36:00,
2013-03-08 21:41:00,39.3,28.5,30.19,North,355,0.0,0.0,65,0.00,,---,0.40,0.00,VWS V14.01,2013-03-09 02:41:00,
2013-03-08 21:46:00,39.1,28.7,30.19,North,5,0.0,0.0,66,0.00,,---,0.40,0.00,VWS V14.01,2013-03-09 02:46:00,
2013-03-08 21:51:00,39.1,28.3,30.19,NNE,24,0.0,0.0,65,0.00,,---,0.40,0.00,VWS V14.01,2013-03-09 02:51:00,
2013-03-08 21:56:00,39.1,28.3,30.20,NNW,339,0.0,0.0,65,0.00,,---,0.40,0.00,VWS V14.01,2013-03-09 02:56:00,
2013-03-08 22:01:00,38.9,28.1,30.20,NNW,340,0.0,0.0,65,0.00,,---,0.40,0.00,VWS V14.01,2013-03-09 03:01:00,
2013-03-08 22:06:00,38.9,28.1,30.20,NNE,19,0.0,0.0,65,0.00,,---,0.40,0.00,VWS V14.01,2013-03-09 03:06:00,
2013-03-08 22:11:00,38.8,28.1,30.19,NNW,333,0.0,0.0,65,0.00,,---,0.40,0.00,VWS V14.01,2013-03-09 03:11:00,
2013-03-08 22:16:00,38.8,28.1,30.19,NNE,19,0.0,0.0,65,0.00,,---,0.40,0.00,VWS V14.01,2013-03-09 03:16:00,
2013-03-08 22:21:00,38.8,27.7,30.19,NNW,347,0.0,0.0,64,0.00,,---,0.40,0.00,VWS V14.01,2013-03-09 03:21:00,
2013-03-08 22:26:00,38.6,27.9,30.19,NNE,24,0.0,0.0,65,0.00,,---,0.40,0.00,VWS V14.01,2013-03-09 03:26:00,
2013-03-08 22:31:00,38.6,27.9,30.20,NNW,341,0.0,0.0,65,0.00,,---,0.40,0.00,VWS V14.01,2013-03-09 03:31:00,
2013-03-08 22:36:00,38.5,27.8,30.20,NW,307,0.0,0.0,65,0.00,,---,0.40,0.00,VWS V14.01,2013-03-09 03:36:00,
2013-03-08 22:41:00,38.4,27.7,30.20,North,355,0.0,0.0,65,0.00,,---,0.40,0.00,VWS V14.01,2013-03-09 03:41:00,
2013-03-08 22:46:00,38.3,28.0,30.20,North,360,0.0,0.0,66,0.00,,---,0.40,0.00,VWS V14.01,2013-03-09 03:46:00,
2013-03-08 22:51:00,38.2,27.5,30.20,NNE,22,0.0,0.0,65,0.00,,---,0.40,0.00,VWS V14.01,2013-03-09 03:51:00,
2013-03-08 22:56:00,38.0,27.7,30.20,NNE,28,0.0,0.0,66,0.00,,---,0.40,0.00,VWS V14.01,2013-03-09 03:56:00,
2013-03-08 23:01:00,37.9,27.9,30.20,NNW,331,0.0,0.0,67,0.00,,---,0.40,0.00,VWS V14.01,2013-03-09 04:01:00,
2013-03-08 23:06:00,37.8,27.5,30.20,North,10,0.0,0.0,66,0.00,,---,0.40,0.00,VWS V14.01,2013-03-09 04:06:00,
2013-03-08 23:11:00,37.8,27.5,30.19,North,11,0.0,0.0,66,0.00,,---,0.40,0.00,VWS V14.01,2013-03-09 04:11:00,
2013-03-08 23:16:00,37.6,27.3,30.20,NNW,331,0.0,0.0,66,0.00,,---,0.40,0.00,VWS V14.01,2013-03-09 04:16:00,
2013-03-08 23:21:00,37.5,27.2,30.20,North,5,0.0,0.0,66,0.00,,---,0.40,0.00,VWS V14.01,2013-03-09 04:21:00,
2013-03-08 23:26:00,37.5,27.5,30.20,NNW,335,0.0,0.0,67,0.00,,---,0.40,0.00,VWS V14.01,2013-03-09 04:26:00,
2013-03-08 23:31:00,37.4,27.1,30.20,North,355,0.0,0.0,66,0.00,,---,0.40,0.00,VWS V14.01,2013-03-09 04:31:00,
2013-03-08 23:36:00,37.3,27.4,30.20,North,360,0.0,0.0,67,0.00,,---,0.40,0.00,VWS V14.01,2013-03-09 04:36:00,
2013-03-08 23:41:00,37.1,27.2,30.20,North,350,0.0,0.0,67,0.00,,---,0.40,0.00,VWS V14.01,2013-03-09 04:41:00,
2013-03-08 23:46:00,37.1,27.2,30.20,NNW,329,0.0,0.0,67,0.00,,---,0.40,0.00,VWS V14.01,2013-03-09 04:46:00,
2013-03-08 23:51:00,37.0,27.1,30.20,North,5,0.0,0.0,67,0.00,,---,0.40,0.00,VWS V14.01,2013-03-09 04:51:00,
2013-03-08 23:56:00,36.9,27.0,30.20,North,355,0.0,0.0,67,0.00,,---,0.40,0.00,VWS V14.01,2013-03-09 04:56:00,